McCall, ID

3:35 AM MDT on April 20, 2018 (GMT -0600)
McCall

Weather History for KMYL - September, 2012

Change the Weather History Date:

Monday, September 24, 2012

  Actual Average Record
Temperature  
Mean Temperature 56 °F 47 °F  
Max Temperature 68 °F 64 °F 88 °F (1928)
Min Temperature 43 °F 30 °F 17 °F (1926)
Degree Days  
Heating Degree Days 9 18  
Month to date heating degree days 200 322  
Since 1 July heating degree days 270 650  
Cooling Degree Days 0 0  
Month to date cooling degree days 0 0  
Year to date cooling degree days 172 25  
Growing Degree Days 5 (Base 50)    
Moisture  
Dew Point 46 °F    
Average Humidity 71    
Maximum Humidity 100    
Minimum Humidity 42    
Precipitation  
Precipitation 0.00 in 0.03 in 0.67 in (2013)
Month to date precipitation 0.17 0.68  
Year to date precipitation 18.31 13.72  
Sea Level Pressure  
Sea Level Pressure 30.08 in    
Wind  
Wind Speed 4 mph (SW)    
Max Wind Speed 12 mph    
Max Gust Speed 16 mph    
Visibility 5 miles    
Events Fog    
T = Trace of Precipitation, MM = Missing Value Source: NWS Daily Summary

Daily Weather History Graph

Daily Weather History Graph

Search for Another Location

Airport or City:

Astronomy

Sep. 24, 2012 Rise Set
Actual Time 7:34 AM MDT 7:36 PM MDT
Civil Twilight 7:05 AM MDT 8:06 PM MDT
Nautical Twilight 6:31 AM MDT 8:40 PM MDT
Astronomical Twilight 5:56 AM MDT 9:15 PM MDT
Moon 4:37 PM MDT (9/24) 1:43 AM MDT (9/24)
Length of Visible Light 13h 00m
Length of Day
12h 02m
Waxing Gibbous, 71% of the Moon is Illuminated
Sep 24
Waxing Gibbous
Sep 29
Full
Oct 8
Last Quarter
Oct 15
New
Oct 21
First Quarter

Hourly Weather History & Observations

Time (MDT) Temp. Windchill Dew Point Humidity Pressure Visibility Wind Dir Wind Speed Gust Speed Precip Events Conditions
12:51 AM 50.0 °F - 48.0 °F 93% 30.08 in 9.0 mi Calm Calm - N/A   Overcast
1:33 AM 50.0 °F - 48.2 °F 94% 30.14 in 7.0 mi Calm Calm - N/A   Overcast
1:42 AM 50.0 °F - 48.2 °F 94% 30.14 in 7.0 mi Calm Calm - N/A   Overcast
1:51 AM 48.9 °F - 48.0 °F 97% 30.07 in 7.0 mi Calm Calm - N/A   Overcast
2:31 AM 48.2 °F - 48.2 °F 100% 30.14 in 1.8 mi South 3.5 mph - N/A   Overcast
2:40 AM 48.2 °F - 48.2 °F 100% 30.14 in 0.8 mi SE 3.5 mph - N/A   Overcast
2:48 AM 48.9 °F - 48.0 °F 97% 30.07 in 1.5 mi SE 3.5 mph - N/A   Overcast
2:52 AM 48.2 °F - 48.2 °F 100% 30.14 in 3.0 mi Calm Calm - N/A   Overcast
2:59 AM 48.2 °F - 48.2 °F 100% 30.14 in 7.0 mi Calm Calm - N/A   Overcast
3:51 AM 48.9 °F - 48.0 °F 97% 30.06 in 10.0 mi NE 3.5 mph - N/A   Overcast
4:27 AM 46.4 °F 45.2 °F 44.6 °F 93% 30.14 in 1.8 mi South 3.5 mph - N/A   Partly Cloudy
4:30 AM 46.4 °F 45.2 °F 44.6 °F 93% 30.14 in 0.8 mi South 3.5 mph - N/A   Mist
4:51 AM 46.0 °F - 46.0 °F 100% 30.09 in 0.2 mi Calm Calm - N/A Fog Fog
5:51 AM 45.0 °F - 45.0 °F 100% 30.10 in 0.2 mi Calm Calm - N/A Fog Fog
6:51 AM 44.1 °F - 44.1 °F 100% 30.11 in 0.2 mi Calm Calm - N/A Fog Fog
7:51 AM 44.1 °F 42.5 °F 43.0 °F 96% 30.13 in 0.2 mi SSE 3.5 mph - N/A Fog Fog
8:51 AM 45.0 °F - 45.0 °F 100% 30.13 in 0.2 mi Calm Calm - N/A Fog Fog
9:51 AM 46.0 °F - 45.0 °F 96% 30.13 in 0.2 mi Calm Calm - N/A Fog Fog
10:51 AM 46.9 °F - 46.0 °F 97% 30.12 in 0.8 mi Calm Calm - N/A   Overcast
10:58 AM 48.2 °F - 46.4 °F 93% 30.15 in 1.2 mi Calm Calm - N/A   Overcast
11:16 AM 48.2 °F - 48.2 °F 100% 30.15 in 3.0 mi Variable 3.5 mph - N/A   Overcast
11:51 AM 50.0 °F - 48.0 °F 93% 30.09 in 10.0 mi South 4.6 mph - N/A   Mostly Cloudy
12:04 PM 53.6 °F - 48.2 °F 82% 30.13 in 10.0 mi Calm Calm - N/A   Scattered Clouds
12:51 PM 57.0 °F - 48.0 °F 72% 30.06 in 10.0 mi SSE 5.8 mph - N/A   Scattered Clouds
1:51 PM 63.0 °F - 46.0 °F 54% 30.02 in 8.0 mi Variable 5.8 mph - N/A   Scattered Clouds
2:51 PM 64.9 °F - 44.1 °F 47% 30.01 in 8.0 mi WNW 9.2 mph - N/A   Overcast
3:51 PM 64.9 °F - 41.0 °F 42% 29.99 in 10.0 mi WNW 6.9 mph - N/A   Mostly Cloudy
4:51 PM 66.0 °F - 42.1 °F 42% 29.99 in 9.0 mi West 11.5 mph - N/A   Clear
5:51 PM 64.9 °F - 43.0 °F 45% 29.99 in 6.0 mi West 9.2 mph - N/A   Haze
6:51 PM 63.0 °F - 43.0 °F 48% 29.99 in 6.0 mi West 6.9 mph - N/A   Haze
7:51 PM 60.1 °F - 43.0 °F 53% 30.00 in 8.0 mi West 4.6 mph - N/A   Overcast
8:51 PM 59.0 °F - 42.1 °F 53% 30.01 in 10.0 mi WNW 6.9 mph - N/A   Overcast
9:51 PM 57.9 °F - 42.1 °F 56% 30.02 in 10.0 mi NW 4.6 mph - N/A   Overcast
10:51 PM 57.0 °F - 43.0 °F 59% 30.02 in 9.0 mi Calm Calm - N/A   Overcast
11:51 PM 55.0 °F - 44.1 °F 67% 30.01 in 10.0 mi ENE 3.5 mph - N/A   Partly Cloudy